Regional Weather Roundup
Issued by NWS Wakefield, VA

Home | Current Version | Previous Version | Text Only | Print | Product List | Glossary On
Versions: 1 2 3 4 5 6 7 8 9 10 11 12 13 14 15 16 17 18 19 20 21 22 23 24 25 26 27 28 29 30 31 32 33 34 35 36 37 38 39 40 41 42 43 44 45 46 47 48 49 50
000
ASUS41 KAKQ 031515
RWRAKQ

REGIONAL WEATHER ROUNDUP
NATIONAL WEATHER SERVICE WAKEFIELD VA
1000 AM EST SAT DEC 03 2016

Note: "fair" indicates few or no clouds below 12,000 feet with no
significant weather and/or obstructions to visibility. * = Denotes
station may not report precipitation (e.g., rain,snow,etc.),
thunder or fog.

VAZ042-051-052>054-056-031600-
NORTHERN VIRGINIA

CITY           SKY/WX    TMP DP  RH WIND       PRES   REMARKS
WASH NATIONAL  MOSUNNY   47  29  49 NW16      30.24R
DULLES         MOSUNNY   45  27  49 NW18G29   30.25R
FORT BELVOIR   MOSUNNY   46  27  48 NW14      30.23R
QUANTICO       PTSUNNY   47  27  45 NW14G29   30.25R
FREDERICKSBRG* MOSUNNY   46  32  56 NW10G20   30.25R
STAFFORD*      PTSUNNY   45  30  56 NW18G28   30.28S
WARRENTON      PTSUNNY   47  23  39 N14G20    30.25R
CULPEPER*      MOSUNNY   46  30  54 N13       30.27R
MANASSAS*      SUNNY     45  28  53 NW17G26   30.25S
LEESBURG*      CLOUDY    45  32  61 W16       30.26R
WINCHESTER     CLOUDY    41  27  56 NW18      30.25S
FRONT ROYAL*   CLOUDY    43  30  61 NW7G17    30.25S
LURAY*         PTSUNNY   43  32  65 W3        30.25R
$$

VAZ048-049-060>072-079>083-031600-
CENTRAL AND SOUTH CENTRAL VIRGINIA

CITY           SKY/WX    TMP DP  RH WIND       PRES   REMARKS
RICHMOND       NOT AVBL
CHESTERFIELD*  FAIR      45  19  36 NW7       30.27R
PETERSBURG*    SUNNY     44  27  51 W8        30.27R
HANOVER        SUNNY     46  28  49 NW8       30.27R
TAPPAHANNOCK*  SUNNY     46  25  44 NW7       30.24S
QUINTON*       FAIR      44  31  59 NW5       30.24R
CHARLOTTSVILLE SUNNY     47  27  45 VRB6G20   30.25R
GORDONSVILLE*  FAIR      46  30  54 NW7       30.24R
ORANGE*          N/A     46  30  53 W8        30.27R
LOUISA*        SUNNY     48  34  57 NW7       30.25R
BUMPASS*       FAIR      45  30  55 NW3       30.25R
FARMVILLE*     SUNNY     46  30  53 N3        30.27R
CREWE*         FAIR      45  28  51 NW8       30.27R
FORT PICKETT*  FAIR      43  22  43 W6        30.27R
CHASE CITY*    FAIR      43  26  51 NW3       30.30R
CLARKSVILLE*   FAIR      43  28  56 NW3       30.30R
SOUTH HILL*    SUNNY     44  29  56 N8        30.34R
LAWRENCEVILLE* FAIR      44  29  56 NW6       30.28R
EMPORIA*       SUNNY     45  28  53 NW9       30.29R
$$

VAZ088>098-031600-
SOUTHEAST VIRGINIA

CITY           SKY/WX    TMP DP  RH WIND       PRES   REMARKS
NORFOLK        SUNNY     48  29  47 NW9G16    30.23R
VIRGINIA BEACH MOSUNNY   48  28  46 NW18G26   30.22R
NORFOLK NAVAL  MOSUNNY   48  30  49 NW15      30.25R
WEST POINT*    SUNNY     47  30  50 NW10      30.26R
SALUDA*        FAIR      46  32  59 NW13G23   30.22R
NEWPORT NEWS   SUNNY     46  31  55 W12       30.24S
LANGLEY AFB    SUNNY     46  31  54 NW13      30.22S
FORT EUSTIS    SUNNY     46  30  54 NW8       30.22S
WILLIAMSBURG*  SUNNY     48  32  53 NW8       30.25R
HR EXEC AP*    FAIR      46  30  53 NW9G16    30.24R
FRANKLIN*      SUNNY     45  29  54 W8        30.27S
US460-WAKEFLD  SUNNY     46  29  51 W6        30.26R
$$

VAZ020-022-025-037-045-031600-
WEST CENTRAL AND SOUTHWEST VIRGINIA

CITY           SKY/WX    TMP DP  RH WIND       PRES   REMARKS
STAUNTON*      SUNNY     41  28  60 W8        30.27R
WAYNESBORO*    FAIR      39  26  58 W5        30.25R
HOT SPRINGS VA CLOUDY    28  27  93 NW14      30.17R WCI  17
LYNCHBURG      CLOUDY    44  25  47 W6        30.28R
DANVILLE       PTSUNNY   44  28  53 N8        30.31R
SOUTH BOSTON*  FAIR      44  25  47 NW7       30.31R
MARTINSVILLE   CLOUDY    40  26  55 NW10      30.32R
ROANOKE        CLOUDY    41  25  53 NW12      30.31R
BLACKSBURG     SUNNY     37  26  65 NW9       30.31R
DUBLIN*        SUNNY     37  26  64 N7        30.30R
MARION*        CLOUDY    35  27  71 NW10      30.31R
HILLSVILLE*    CLOUDY    32  26  78 NW10      30.25R WCI  24
RICHLANDS*     CLOUDY    32  27  82 NW5       30.29S
WISE*          CLOUDY    32  28  86 CALM      30.31R
ABINGDON*      CLOUDY    37  28  69 CALM      30.32R
$$

MDZ021>025-VAZ099-100-031600-
SOUTHERN MARYLAND AND THE DELMARVA PENINSULA

CITY           SKY/WX    TMP DP  RH WIND       PRES   REMARKS
PATUXENT RIVER MOSUNNY   47  28  47 NW18G30   30.21R
BAY BRIDGE APT SUNNY     46  30  53 NW17G24   30.20R
LEONARDTOWN    SUNNY     45  28  53 W15G22    30.22R
DOVER          SUNNY     47  33  57 W18       30.13S
GEORGETOWN     SUNNY     47  30  51 NW13G24   30.16S
EASTON         SUNNY     48  30  49 NW17G26   30.22S
CAMBRIDGE      SUNNY     45  30  57 NW13G25   30.18S
SALISBURY      SUNNY     47  30  51 NW18G26   30.17R
OCEAN CITY     SUNNY     47  30  51 NW18G28   30.15S
WALLOPS ISLAND SUNNY     48  31  51 NW14G28   30.18R
ACCOMACK*      SUNNY     47  34  60 NW14G24   30.19S
$$

NCZ012>017-030>032-031600-
NORTH CENTRAL AND EASTERN NORTH CAROLINA

CITY           SKY/WX    TMP DP  RH WIND       PRES   REMARKS
ROANOKE RAPIDS FAIR      45  32  61 N6        30.29R
RALEIGH        MOSUNNY   46  27  47 N6        30.31R
ELIZABETH CITY SUNNY     46  31  55 NW10      30.24S
AHOSKIE*       SUNNY     43  30  59 N3        30.28R
EDENTON*       SUNNY     47  32  55 NW13      30.26S
CURRITUCK*     SUNNY     46  31  56 NW9       30.24S
KILL DEVIL HLS SUNNY     47  34  60 NW7G18    30.21R
MANTEO         SUNNY     46  32  58 N10G17    30.23R
CAPE HATTERAS  SUNNY     49  33  54 VRB6      30.24R
TARBORO*       NOT AVBL
GOLDSBORO      SUNNY     47  28  47 N10       30.28R
WASHINGTON     SUNNY     46  32  58 NW7       30.28S
GREENVILLE     SUNNY     45  32  61 N8        30.29S
NEW BERN       SUNNY     46  30  53 N13       30.28R
WILMINGTON     SUNNY     47  30  51 N12       30.30R
$$

VAZ048-031600-
ELSEWHERE

CITY           SKY/WX    TMP DP  RH WIND       PRES   REMARKS
HARRISBURG PA  PTSUNNY   47  33  58 NW17      30.14R
BALTIMORE      MOSUNNY   46  30  53 W20       30.20S
ANNAPOLIS      SUNNY     48  30  49 NW15G24   30.20R
ANDREWS AFB    SUNNY     45  28  49 W17G25    30.21R
PHILADELPHIA   PTSUNNY   46  31  55 NW12      30.13R
HENDERSON NC   SUNNY     42  25  51 N9G16     30.29R
GREENSBORO     PTSUNNY   45  29  53 VRB3      30.29R
ROCKY MOUNT    SUNNY     46  29  51 NW13      30.30R
$$

VAZ100-031600-
MARINE

STATION/POSITION TIME  TEMP    WIND        PRES    WAVE   SWELL
                       AIR SEA DIR/SP/G            HT/PER HT/PER
                 (UTC) (F)     (DEG/KT/KT) (MB)    (FT/S) (FT/S)
BRANDYWINE LGT   1442   45     310/ 22/ 29   N/A
CAPE MAY NJ      1442   46 47  300/ 21/ 26 1020.0R
LEWES DE         1442   46 49  310/ 23/ 27 1020.5R
OCEAN-CITY-INLET 1442   46 51  320/ 13/ 17 1021.3R
WACHAPREAGUE VA  1448   48 50  280/  4/ 12 1022.2S
THOMAS POINT MD  1500   45 49  300/ 19/ 22   N/A
GOOSES REEF MD   1500   46 51  330/ 19/ 23 1023.3    2/ 3
COVE POINT MD    1448   45     340/ 25/ 29 1022.9R
SOLOMONS ISLAND  1442   46 51  310/ 14/ 21   N/A
BISHOPS HEAD MD  1448   45 43  300/ 21/ 24 1022.9R
PINEY POINT MD   1448          330/ 24/ 26   N/A
POTOMAC MD       1500   46 51  310/ 19/ 25 1022.5    2/ 3
CAMBRIDGE MD     1448   45 47  300/ 15/ 21 1021.6S
LEWISETTA VA     1448   45 50  320/ 16/ 20 1023.1R
RAPPAHANNOCK LGT 1448          310/ 26/ 29 1023.0S
STINGRAY PT      1450   46     330/ 19/ 23 1023.3R
YORK RVR RNG VA  1448   45     310/ 16/ 20 1023.1R
YORKTOWN VA      1448   44 52  300/ 12/ 15 1023.5R
JAMESTOWN VA     1500   43 53  290/ 12/ 14   N/A
DOMINION TERM VA 1448   45     320/ 15/ 18 1023.9R
KIPTOPEKE VA     1436      51  320/ 17/ 19   N/A
CHES BAY BRIDGE  1436   46 53  310/ 16/ 20 1023.2R
CAPE HENRY VA    1436   46     300/ 18/ 23   N/A
WILLOUBY STN VA  1436   45     310/ 13/ 15 1024.5R
S CRANEY ISL VA  1448   46     310/ 12/ 16 1023.6R
CAPE HENRY BUOY  1442      56                N/A     4/ 5
1ST LANDING BUOY 1500   46 53              1023.5    2/ 3
CAPE CHARLES BUO 1456      56                N/A     3/ 4
OFFSHORE WE BUOY 1451      57                N/A     6/ 5
64NM E OF VA BCH 1450   50 60  330/ 21/ 25 1021.2R   9/ 7
DUCK PIER NC     1436   45 56  320/ 20/ 22 1022.5R
44100 DUCK FRF   1435      57                N/A     6/ 6
OREGON INLET NC  1436   46 56  320/ 16/ 20 1023.3R
HATTERAS NC      1436   47 58  330/ 19/ 23 1023.4R
DIAMOND SHLS NC  1450   66 74  350/ 19/ 25 1023.1R   5/ 6   2/15
CAPE LOOKOUT NC  1400   45     340/ 12/ 14 1023.6R
$$



USA.gov is the U.S. government's official web portal to all federal, state and local government web resources and services.